Location: Crewe
(53.0817°N, 2.4572°W)
Time: 21:02:58
(UTC+00:00)

N. Korean satellite - Visible Passes

Search period start: 08 December 2019 00:00
Search period end: 18 December 2019 00:00
Orbit: 456 x 506 km, 97.2° (Epoch: 07 December)

Date Brightness Start Highest point End Pass type
(mag) Time Alt. Az. Time Alt. Az. Time Alt. Az.
08 Dec 7.7 05:51:34 10° NNE 05:55:03 45° E 05:58:27 10° S visible
08 Dec 7.9 07:25:34 10° NNW 07:28:10 19° WNW 07:30:44 10° WSW visible
08 Dec 6.9 16:32:30 10° SE 16:36:04 45° ENE 16:39:37 10° N visible
08 Dec 9.6 18:06:56 10° SW 18:09:40 19° W 18:12:24 10° NW visible
09 Dec 8.9 05:26:28 10° NE 05:29:28 25° E 05:32:25 10° SSE visible
09 Dec 7.2 06:59:41 10° N 07:02:55 32° WNW 07:06:05 10° SW visible
09 Dec 8.5 17:40:40 10° SSW 17:44:04 33° W 17:47:28 10° NNW visible
10 Dec 9.8 05:01:51 10° NE 05:03:47 14° E 05:05:43 10° ESE visible
10 Dec 6.5 06:34:03 10° N 06:37:35 59° WNW 06:41:02 10° SSW visible
10 Dec 7.2 17:14:51 10° S 17:18:32 63° W 17:22:12 10° NNW visible
11 Dec 6.7 06:08:35 10° NNE 06:12:10 72° ESE 06:15:39 10° S visible
11 Dec 6.6 16:49:25 10° SSE 16:53:06 70° ENE 16:56:47 10° N visible
11 Dec 10.0 18:25:06 10° WSW 18:26:55 13° W 18:28:45 10° WNW visible
12 Dec 8.1 05:43:18 10° NNE 05:46:38 37° E 05:49:53 10° SSE visible
12 Dec 7.7 07:17:03 10° NNW 07:19:52 22° WNW 07:22:38 10° WSW visible
12 Dec 9.3 17:58:17 10° SSW 18:01:15 23° W 18:04:14 10° NW visible
13 Dec 9.2 05:18:18 10° NE 05:21:01 20° E 05:23:41 10° SE visible
13 Dec 7.0 06:51:16 10° N 06:54:35 38° WNW 06:57:50 10° SW visible
13 Dec 8.1 17:32:09 10° S 17:35:40 40° W 17:39:09 10° NNW visible
14 Dec 10.0 04:54:05 10° ENE 04:55:19 11° E 04:56:31 10° ESE visible
14 Dec 6.4 06:25:39 10° N 06:29:12 73° WNW 06:32:40 10° SSW visible
14 Dec 6.8 17:06:28 10° S 17:10:09 77° WSW 17:13:51 10° NNW visible
15 Dec 7.1 06:00:15 10° NNE 06:03:45 57° E 06:07:09 10° S visible
15 Dec 6.7 16:41:08 10° SSE 16:44:44 57° ENE 16:48:20 10° N visible
15 Dec 9.8 18:16:12 10° SW 18:18:28 16° W 18:20:44 10° NW visible
16 Dec 8.5 05:35:02 10° NNE 05:38:11 30° E 05:41:17 10° SSE visible
16 Dec 7.5 07:08:33 10° N 07:11:31 26° WNW 07:14:27 10° WSW visible
16 Dec 8.9 17:49:39 10° SSW 17:52:49 27° W 17:55:58 10° NW visible
17 Dec 9.5 05:10:11 10° NE 05:12:32 17° E 05:14:51 10° SE visible
17 Dec 6.7 06:42:48 10° N 06:46:12 46° WNW 06:49:31 10° SW visible
17 Dec 7.6 17:23:41 10° S 17:27:15 49° W 17:30:48 10° NNW visible
